Time,TemperatureF,DewpointF,PressureIn,WindDirection,WindDirectionDegrees,WindSpeedMPH,WindSpeedGustMPH,Humidity,HourlyPrecipIn,Conditions,Clouds,dailyrainin,SoftwareType,DateUTC
2013-01-31 00:04:00,46.8,42.8,30.09,East,90,3.4,3.4,86,0.00,,,0.00,WUHU216HW,2013-01-31 08:04:00,
2013-01-31 00:09:00,46.6,42.7,30.09,East,90,3.4,3.8,86,0.00,,,0.00,WUHU216HW,2013-01-31 08:09:00,
2013-01-31 00:14:00,46.4,42.5,30.09,East,90,2.7,3.8,86,0.00,,,0.00,WUHU216HW,2013-01-31 08:14:00,
2013-01-31 00:19:00,46.3,42.7,30.09,East,90,3.6,3.8,87,0.00,,,0.00,WUHU216HW,2013-01-31 08:19:00,
2013-01-31 00:24:00,46.1,42.5,30.09,East,90,3.8,3.8,87,0.00,,,0.00,WUHU216HW,2013-01-31 08:24:00,
2013-01-31 00:29:00,46.1,42.5,30.09,East,90,2.9,3.8,87,0.00,,,0.00,WUHU216HW,2013-01-31 08:29:00,
2013-01-31 00:34:00,46.1,42.5,30.09,East,90,2.2,3.4,87,0.00,,,0.00,WUHU216HW,2013-01-31 08:34:00,
2013-01-31 00:39:00,46.1,42.5,30.09,East,90,2.5,3.1,87,0.00,,,0.00,WUHU216HW,2013-01-31 08:39:00,
2013-01-31 00:44:00,45.9,42.3,30.08,East,90,4.0,4.0,87,0.00,,,0.00,WUHU216HW,2013-01-31 08:44:00,
2013-01-31 00:49:00,45.9,42.3,30.08,East,90,2.7,4.0,87,0.00,,,0.00,WUHU216HW,2013-01-31 08:49:00,
2013-01-31 00:54:00,45.9,42.3,30.08,ENE,68,2.9,4.3,87,0.00,,,0.00,WUHU216HW,2013-01-31 08:54:00,
2013-01-31 00:59:00,46.1,42.5,30.08,ENE,68,3.4,4.3,87,0.00,,,0.00,WUHU216HW,2013-01-31 08:59:00,
2013-01-31 01:04:00,46.3,42.3,30.08,ENE,68,3.6,4.0,86,0.00,,,0.00,WUHU216HW,2013-01-31 09:04:00,
2013-01-31 01:09:00,46.3,42.3,30.08,ENE,68,3.1,3.6,86,0.00,,,0.00,WUHU216HW,2013-01-31 09:09:00,
2013-01-31 01:14:00,46.3,42.3,30.08,East,90,3.8,4.0,86,0.00,,,0.00,WUHU216HW,2013-01-31 09:14:00,
2013-01-31 01:19:00,46.4,42.5,30.08,East,90,4.9,4.9,86,0.00,,,0.00,WUHU216HW,2013-01-31 09:19:00,
2013-01-31 01:24:00,46.4,42.2,30.08,ENE,68,3.8,4.9,85,0.00,,,0.00,WUHU216HW,2013-01-31 09:24:00,
2013-01-31 01:29:00,46.6,42.4,30.08,East,90,2.7,4.0,85,0.00,,,0.00,WUHU216HW,2013-01-31 09:29:00,
2013-01-31 01:34:00,46.8,42.6,30.08,East,90,2.7,3.8,85,0.00,,,0.00,WUHU216HW,2013-01-31 09:34:00,
2013-01-31 01:39:00,46.8,42.6,30.08,ENE,68,2.5,3.8,85,0.00,,,0.00,WUHU216HW,2013-01-31 09:39:00,
2013-01-31 01:44:00,46.6,42.4,30.08,East,90,4.0,4.3,85,0.00,,,0.00,WUHU216HW,2013-01-31 09:44:00,
2013-01-31 01:49:00,46.6,42.4,30.08,ENE,68,1.1,4.3,85,0.00,,,0.00,WUHU216HW,2013-01-31 09:49:00,
2013-01-31 01:54:00,46.6,42.4,30.08,NE,45,2.2,2.9,85,0.00,,,0.00,WUHU216HW,2013-01-31 09:54:00,
2013-01-31 01:59:00,46.6,42.0,30.08,ENE,68,0.9,2.5,84,0.00,,,0.00,WUHU216HW,2013-01-31 09:59:00,
2013-01-31 02:04:00,46.6,42.0,30.08,NNE,23,0.9,2.5,84,0.00,,,0.00,WUHU216HW,2013-01-31 10:04:00,
2013-01-31 02:09:00,46.8,42.2,30.08,East,90,0.2,1.8,84,0.00,,,0.00,WUHU216HW,2013-01-31 10:09:00,
2013-01-31 02:14:00,46.8,42.2,30.08,ENE,68,0.0,1.1,84,0.00,,,0.00,WUHU216HW,2013-01-31 10:14:00,
2013-01-31 02:19:00,46.6,41.8,30.08,SE,135,0.9,0.9,83,0.00,,,0.00,WUHU216HW,2013-01-31 10:19:00,
2013-01-31 02:24:00,46.3,41.4,30.08,ESE,113,1.8,1.8,83,0.00,,,0.00,WUHU216HW,2013-01-31 10:24:00,
2013-01-31 02:29:00,45.9,41.7,30.08,ESE,113,1.1,3.1,85,0.00,,,0.00,WUHU216HW,2013-01-31 10:29:00,
2013-01-31 02:34:00,46.1,41.6,30.08,ESE,113,0.7,3.1,84,0.00,,,0.00,WUHU216HW,2013-01-31 10:34:00,
2013-01-31 02:39:00,46.1,41.6,30.08,East,90,2.0,2.0,84,0.00,,,0.00,WUHU216HW,2013-01-31 10:39:00,
2013-01-31 02:44:00,46.3,42.0,30.08,East,90,5.1,5.1,85,0.00,,,0.00,WUHU216HW,2013-01-31 10:44:00,
2013-01-31 02:49:00,46.4,42.0,30.07,East,90,4.3,5.1,84,0.00,,,0.00,WUHU216HW,2013-01-31 10:49:00,
2013-01-31 02:54:00,46.6,41.8,30.07,East,90,4.5,4.5,83,0.00,,,0.00,WUHU216HW,2013-01-31 10:54:00,
2013-01-31 02:59:00,46.4,41.6,30.07,East,90,2.7,4.7,83,0.00,,,0.00,WUHU216HW,2013-01-31 10:59:00,
2013-01-31 03:04:00,46.4,41.6,30.07,East,90,4.0,5.1,83,0.00,,,0.00,WUHU216HW,2013-01-31 11:04:00,
2013-01-31 03:09:00,46.4,41.6,30.07,ENE,68,2.9,5.1,83,0.00,,,0.00,WUHU216HW,2013-01-31 11:09:00,
2013-01-31 03:14:00,46.8,41.6,30.06,ENE,68,2.7,3.6,82,0.00,,,0.00,WUHU216HW,2013-01-31 11:14:00,
2013-01-31 03:19:00,47.0,41.8,30.07,East,90,2.9,3.6,82,0.00,,,0.00,WUHU216HW,2013-01-31 11:19:00,
2013-01-31 03:24:00,47.2,41.9,30.07,East,90,2.2,3.4,82,0.00,,,0.00,WUHU216HW,2013-01-31 11:24:00,
2013-01-31 03:29:00,47.2,41.7,30.07,East,90,2.5,2.5,81,0.00,,,0.00,WUHU216HW,2013-01-31 11:29:00,
2013-01-31 03:34:00,47.3,41.8,30.07,East,90,3.4,3.4,81,0.00,,,0.00,WUHU216HW,2013-01-31 11:34:00,
2013-01-31 03:39:00,47.5,41.9,30.06,ENE,68,2.5,4.5,81,0.00,,,0.00,WUHU216HW,2013-01-31 11:39:00,
2013-01-31 03:44:00,47.5,41.7,30.06,East,90,3.4,4.5,80,0.00,,,0.00,WUHU216HW,2013-01-31 11:44:00,
2013-01-31 03:49:00,47.5,41.7,30.06,East,90,2.2,3.6,80,0.00,,,0.00,WUHU216HW,2013-01-31 11:49:00,
2013-01-31 03:54:00,47.5,41.7,30.06,ENE,68,1.8,3.6,80,0.00,,,0.00,WUHU216HW,2013-01-31 11:54:00,
2013-01-31 03:59:00,47.5,41.7,30.05,ENE,68,2.7,3.4,80,0.00,,,0.00,WUHU216HW,2013-01-31 11:59:00,
2013-01-31 04:04:00,47.7,41.9,30.05,East,90,1.3,3.4,80,0.00,,,0.00,WUHU216HW,2013-01-31 12:04:00,
2013-01-31 04:09:00,47.5,41.7,30.05,ENE,68,2.9,3.4,80,0.00,,,0.00,WUHU216HW,2013-01-31 12:09:00,
2013-01-31 04:10:00,47.5,41.7,30.05,ENE,68,3.4,3.4,80,0.00,,,0.00,WUHU216HW,2013-01-31 12:10:00,
2013-01-31 04:16:00,47.5,41.7,30.05,ENE,68,1.8,3.4,80,0.00,,,0.00,WUHU216HW,2013-01-31 12:16:00,
2013-01-31 04:26:00,47.2,41.3,30.05,NNE,23,1.3,2.5,80,0.00,,,0.00,WUHU216HW,2013-01-31 12:26:00,
2013-01-31 04:31:00,47.0,41.1,30.05,North,0,0.9,1.3,80,0.00,,,0.00,WUHU216HW,2013-01-31 12:31:00,
2013-01-31 04:36:00,46.8,41.1,30.05,NNE,23,0.0,0.9,80,0.00,,,0.00,WUHU216HW,2013-01-31 12:36:00,
2013-01-31 04:41:00,46.6,40.9,30.05,NNE,23,0.0,0.9,80,0.00,,,0.00,WUHU216HW,2013-01-31 12:41:00,
2013-01-31 04:46:00,46.6,40.9,30.05,NNE,23,0.0,0.4,80,0.00,,,0.00,WUHU216HW,2013-01-31 12:46:00,
2013-01-31 04:51:00,46.4,40.7,30.05,NNE,23,0.2,0.4,80,0.00,,,0.00,WUHU216HW,2013-01-31 12:51:00,
2013-01-31 04:56:00,46.4,40.7,30.05,NNE,23,0.0,0.4,80,0.00,,,0.00,WUHU216HW,2013-01-31 12:56:00,
2013-01-31 05:01:00,46.3,40.5,30.05,NNE,23,0.4,0.4,80,0.00,,,0.00,WUHU216HW,2013-01-31 13:01:00,
2013-01-31 05:06:00,46.3,40.8,30.05,NNE,23,0.7,0.7,81,0.00,,,0.00,WUHU216HW,2013-01-31 13:06:00,
2013-01-31 05:11:00,46.1,40.6,30.05,NNE,23,0.0,0.7,81,0.00,,,0.00,WUHU216HW,2013-01-31 13:11:00,
2013-01-31 05:16:00,46.1,40.6,30.05,NNE,23,0.2,0.4,81,0.00,,,0.00,WUHU216HW,2013-01-31 13:16:00,
2013-01-31 05:21:00,45.9,40.4,30.05,NNE,23,0.4,0.4,81,0.00,,,0.00,WUHU216HW,2013-01-31 13:21:00,
2013-01-31 05:26:00,46.1,40.6,30.05,NNE,23,0.4,0.7,81,0.00,,,0.00,WUHU216HW,2013-01-31 13:26:00,
2013-01-31 05:31:00,46.1,40.6,30.05,ESE,113,0.4,0.7,81,0.00,,,0.00,WUHU216HW,2013-01-31 13:31:00,
2013-01-31 05:36:00,46.3,40.8,30.05,ENE,68,0.4,0.9,81,0.00,,,0.00,WUHU216HW,2013-01-31 13:36:00,
2013-01-31 05:41:00,46.6,41.1,30.05,ENE,68,0.4,1.8,81,0.00,,,0.00,WUHU216HW,2013-01-31 13:41:00,
2013-01-31 05:46:00,46.8,41.1,30.05,ENE,68,2.2,2.7,80,0.00,,,0.00,WUHU216HW,2013-01-31 13:46:00,
2013-01-31 05:51:00,47.2,41.3,30.05,ENE,68,1.8,4.0,80,0.00,,,0.00,WUHU216HW,2013-01-31 13:51:00,
2013-01-31 05:56:00,47.3,41.5,30.05,ENE,68,1.6,4.0,80,0.00,,,0.00,WUHU216HW,2013-01-31 13:56:00,
2013-01-31 06:01:00,47.5,41.3,30.05,ENE,68,2.5,2.7,79,0.00,,,0.00,WUHU216HW,2013-01-31 14:01:00,
2013-01-31 06:06:00,47.5,41.3,30.05,ENE,68,3.4,3.4,79,0.00,,,0.00,WUHU216HW,2013-01-31 14:06:00,
2013-01-31 06:11:00,47.5,41.0,30.05,NE,45,1.8,3.8,78,0.00,,,0.00,WUHU216HW,2013-01-31 14:11:00,
2013-01-31 06:16:00,47.3,41.1,30.05,ENE,68,3.4,3.8,79,0.00,,,0.00,WUHU216HW,2013-01-31 14:16:00,
2013-01-31 06:21:00,47.5,41.0,30.05,NE,45,2.7,3.6,78,0.00,,,0.00,WUHU216HW,2013-01-31 14:21:00,
2013-01-31 06:26:00,47.7,41.1,30.05,East,90,2.0,3.8,78,0.00,,,0.00,WUHU216HW,2013-01-31 14:26:00,
2013-01-31 06:31:00,47.2,40.3,30.05,SE,135,0.9,3.8,77,0.00,,,0.00,WUHU216HW,2013-01-31 14:31:00,
2013-01-31 06:36:00,45.7,39.0,30.05,SE,135,1.3,2.9,77,0.00,,,0.00,WUHU216HW,2013-01-31 14:36:00,
2013-01-31 06:41:00,44.6,37.9,30.05,ESE,113,0.9,1.8,77,0.00,,,0.00,WUHU216HW,2013-01-31 14:41:00,
2013-01-31 06:46:00,44.3,38.2,30.05,East,90,1.8,1.8,79,0.00,,,0.00,WUHU216HW,2013-01-31 14:46:00,
2013-01-31 06:51:00,44.3,38.2,30.05,ENE,68,0.4,1.8,79,0.00,,,0.00,WUHU216HW,2013-01-31 14:51:00,
2013-01-31 06:56:00,44.5,38.7,30.05,NE,45,0.4,1.8,80,0.00,,,0.00,WUHU216HW,2013-01-31 14:56:00,
2013-01-31 07:01:00,44.1,38.0,30.06,SE,135,1.8,2.7,79,0.00,,,0.00,WUHU216HW,2013-01-31 15:01:00,
2013-01-31 07:06:00,43.2,37.7,30.06,East,90,1.8,2.7,81,0.00,,,0.00,WUHU216HW,2013-01-31 15:06:00,
2013-01-31 07:11:00,43.0,37.9,30.06,East,90,2.5,2.7,82,0.00,,,0.00,WUHU216HW,2013-01-31 15:11:00,
2013-01-31 07:16:00,42.8,38.0,30.06,East,90,2.5,3.4,83,0.00,,,0.00,WUHU216HW,2013-01-31 15:16:00,
2013-01-31 07:21:00,42.5,38.0,30.06,East,90,3.6,4.0,84,0.00,,,0.00,WUHU216HW,2013-01-31 15:21:00,
2013-01-31 07:26:00,42.3,38.1,30.06,East,90,3.8,4.7,85,0.00,,,0.00,WUHU216HW,2013-01-31 15:26:00,
2013-01-31 07:31:00,42.3,38.1,30.06,East,90,4.5,5.4,85,0.00,,,0.00,WUHU216HW,2013-01-31 15:31:00,
2013-01-31 07:36:00,42.8,38.6,30.06,ENE,68,4.9,5.4,85,0.00,,,0.00,WUHU216HW,2013-01-31 15:36:00,
2013-01-31 07:41:00,43.4,38.9,30.06,ENE,68,4.3,4.9,84,0.00,,,0.00,WUHU216HW,2013-01-31 15:41:00,
2013-01-31 07:46:00,43.9,39.1,30.06,ENE,68,4.5,4.7,83,0.00,,,0.00,WUHU216HW,2013-01-31 15:46:00,
2013-01-31 07:51:00,44.5,39.0,30.06,East,90,3.6,4.7,81,0.00,,,0.00,WUHU216HW,2013-01-31 15:51:00,
2013-01-31 07:56:00,45.2,39.7,30.06,ESE,113,3.6,4.7,81,0.00,,,0.00,WUHU216HW,2013-01-31 15:56:00,
2013-01-31 08:01:00,45.7,39.6,30.06,East,90,4.0,4.9,79,0.00,,,0.00,WUHU216HW,2013-01-31 16:01:00,
2013-01-31 08:06:00,46.1,40.0,30.06,East,90,4.0,4.9,79,0.00,,,0.00,WUHU216HW,2013-01-31 16:06:00,
2013-01-31 08:11:00,46.4,40.3,30.06,East,90,3.4,4.5,79,0.00,,,0.00,WUHU216HW,2013-01-31 16:11:00,
2013-01-31 08:16:00,47.0,40.9,30.06,East,90,1.8,3.8,79,0.00,,,0.00,WUHU216HW,2013-01-31 16:16:00,
2013-01-31 08:21:00,47.5,41.7,30.06,East,90,0.9,3.8,80,0.00,,,0.00,WUHU216HW,2013-01-31 16:21:00,
2013-01-31 08:26:00,48.2,42.3,30.06,ENE,68,1.6,2.2,80,0.00,,,0.00,WUHU216HW,2013-01-31 16:26:00,
2013-01-31 08:31:00,49.1,42.8,30.06,SE,135,0.0,1.6,79,0.00,,,0.00,WUHU216HW,2013-01-31 16:31:00,
2013-01-31 08:36:00,49.9,43.9,30.06,SSE,158,0.4,1.3,80,0.00,,,0.00,WUHU216HW,2013-01-31 16:36:00,
2013-01-31 08:41:00,50.6,44.3,30.06,SSE,158,0.7,1.3,79,0.00,,,0.00,WUHU216HW,2013-01-31 16:41:00,
2013-01-31 08:46:00,51.1,44.8,30.06,SSE,158,1.3,1.6,79,0.00,,,0.00,WUHU216HW,2013-01-31 16:46:00,
2013-01-31 08:51:00,51.8,45.2,30.06,SSE,158,0.9,1.6,78,0.00,,,0.00,WUHU216HW,2013-01-31 16:51:00,
2013-01-31 08:56:00,52.4,45.1,30.07,SSE,158,0.7,0.9,76,0.00,,,0.00,WUHU216HW,2013-01-31 16:56:00,
2013-01-31 09:01:00,52.9,44.8,30.07,SE,135,1.1,1.1,74,0.00,,,0.00,WUHU216HW,2013-01-31 17:01:00,
2013-01-31 09:06:00,53.3,45.5,30.07,SSE,158,1.8,2.7,75,0.00,,,0.00,WUHU216HW,2013-01-31 17:06:00,
2013-01-31 09:11:00,53.6,45.9,30.07,SSE,158,3.4,3.4,75,0.00,,,0.00,WUHU216HW,2013-01-31 17:11:00,
2013-01-31 09:16:00,53.6,45.5,30.07,SSE,158,2.5,3.6,74,0.00,,,0.00,WUHU216HW,2013-01-31 17:16:00,
2013-01-31 09:21:00,53.8,45.7,30.07,SE,135,3.4,4.7,74,0.00,,,0.00,WUHU216HW,2013-01-31 17:21:00,
2013-01-31 09:26:00,54.0,45.6,30.07,SE,135,3.4,4.7,73,0.00,,,0.00,WUHU216HW,2013-01-31 17:26:00,
2013-01-31 09:31:00,54.4,45.6,30.07,ESE,113,2.5,3.6,72,0.00,,,0.00,WUHU216HW,2013-01-31 17:31:00,
2013-01-31 09:36:00,54.4,45.6,30.07,SSE,158,0.9,3.8,72,0.00,,,0.00,WUHU216HW,2013-01-31 17:36:00,
2013-01-31 09:41:00,55.1,46.3,30.07,South,180,1.3,3.8,72,0.00,,,0.00,WUHU216HW,2013-01-31 17:41:00,
2013-01-31 09:46:00,55.8,46.9,30.07,SSW,203,1.6,2.7,72,0.00,,,0.00,WUHU216HW,2013-01-31 17:46:00,
2013-01-31 09:51:00,56.7,47.7,30.07,SSE,158,0.4,2.5,72,0.00,,,0.00,WUHU216HW,2013-01-31 17:51:00,
2013-01-31 09:56:00,57.6,47.9,30.07,SSE,158,1.1,2.2,70,0.00,,,0.00,WUHU216HW,2013-01-31 17:56:00,
2013-01-31 10:01:00,58.3,48.2,30.06,SSE,158,0.4,2.5,69,0.00,,,0.00,WUHU216HW,2013-01-31 18:01:00,
2013-01-31 10:06:00,59.0,48.9,30.07,SSE,158,1.6,2.5,69,0.00,,,0.00,WUHU216HW,2013-01-31 18:06:00,
2013-01-31 10:11:00,59.8,49.2,30.07,SE,135,1.6,3.4,68,0.00,,,0.00,WUHU216HW,2013-01-31 18:11:00,
2013-01-31 10:16:00,60.3,48.5,30.07,East,90,3.4,3.4,65,0.00,,,0.00,WUHU216HW,2013-01-31 18:16:00,
2013-01-31 10:21:00,60.3,48.1,30.07,ESE,113,2.2,4.5,64,0.00,,,0.00,WUHU216HW,2013-01-31 18:21:00,
2013-01-31 10:26:00,60.7,47.3,30.07,East,90,2.9,4.5,61,0.00,,,0.00,WUHU216HW,2013-01-31 18:26:00,
2013-01-31 10:31:00,60.8,47.4,30.07,SE,135,2.5,3.6,61,0.00,,,0.00,WUHU216HW,2013-01-31 18:31:00,
2013-01-31 10:36:00,61.4,48.3,30.07,SE,135,2.5,3.6,62,0.00,,,0.00,WUHU216HW,2013-01-31 18:36:00,
2013-01-31 10:41:00,61.9,48.0,30.07,East,90,2.5,4.0,60,0.00,,,0.00,WUHU216HW,2013-01-31 18:41:00,
2013-01-31 10:46:00,62.6,49.4,30.07,East,90,0.4,4.0,62,0.00,,,0.00,WUHU216HW,2013-01-31 18:46:00,
2013-01-31 10:51:00,63.0,48.0,30.06,NE,45,2.0,4.3,58,0.00,,,0.00,WUHU216HW,2013-01-31 18:51:00,
2013-01-31 10:56:00,63.0,45.0,30.06,ENE,68,6.0,6.0,52,0.00,,,0.00,WUHU216HW,2013-01-31 18:56:00,
2013-01-31 11:01:00,62.6,44.2,30.06,East,90,5.6,6.3,51,0.00,,,0.00,WUHU216HW,2013-01-31 19:01:00,
2013-01-31 11:06:00,62.8,44.9,30.06,ENE,68,4.7,6.3,52,0.00,,,0.00,WUHU216HW,2013-01-31 19:06:00,
2013-01-31 11:11:00,63.2,46.2,30.06,NNE,23,2.5,4.7,54,0.00,,,0.00,WUHU216HW,2013-01-31 19:11:00,
2013-01-31 11:16:00,64.1,47.0,30.06,NE,45,0.4,3.8,54,0.00,,,0.00,WUHU216HW,2013-01-31 19:16:00,
2013-01-31 11:21:00,64.4,45.4,30.06,East,90,4.7,4.7,50,0.00,,,0.00,WUHU216HW,2013-01-31 19:21:00,
2013-01-31 11:26:00,64.4,46.8,30.05,NNW,338,1.6,5.8,53,0.00,,,0.00,WUHU216HW,2013-01-31 19:26:00,
2013-01-31 11:31:00,65.0,47.9,30.05,North,0,1.6,5.8,54,0.00,,,0.00,WUHU216HW,2013-01-31 19:31:00,
2013-01-31 11:36:00,65.5,48.4,30.05,NW,315,1.1,3.4,54,0.00,,,0.00,WUHU216HW,2013-01-31 19:36:00,
2013-01-31 11:41:00,65.9,48.8,30.05,NW,315,1.6,3.4,54,0.00,,,0.00,WUHU216HW,2013-01-31 19:41:00,
2013-01-31 11:46:00,66.4,49.8,30.05,NNE,23,0.4,1.8,55,0.00,,,0.00,WUHU216HW,2013-01-31 19:46:00,
2013-01-31 11:51:00,67.0,49.2,30.05,ENE,68,0.9,1.8,53,0.00,,,0.00,WUHU216HW,2013-01-31 19:51:00,
2013-01-31 11:56:00,67.7,50.4,30.04,North,0,0.9,1.8,54,0.00,,,0.00,WUHU216HW,2013-01-31 19:56:00,
2013-01-31 12:01:00,68.0,49.8,30.04,SE,135,0.4,3.6,52,0.00,,,0.00,WUHU216HW,2013-01-31 20:01:00,
2013-01-31 12:06:00,68.6,50.2,30.04,SE,135,0.4,3.6,52,0.00,,,0.00,WUHU216HW,2013-01-31 20:06:00,
2013-01-31 12:11:00,68.9,50.6,30.04,NE,45,1.3,1.6,52,0.00,,,0.00,WUHU216HW,2013-01-31 20:11:00,
2013-01-31 12:16:00,69.3,50.4,30.03,North,0,0.9,3.4,51,0.00,,,0.00,WUHU216HW,2013-01-31 20:16:00,
2013-01-31 12:21:00,68.8,46.4,30.03,ESE,113,3.4,6.3,45,0.00,,,0.00,WUHU216HW,2013-01-31 20:21:00,
2013-01-31 12:26:00,68.6,48.7,30.03,East,90,2.7,6.3,49,0.00,,,0.00,WUHU216HW,2013-01-31 20:26:00,
2013-01-31 12:31:00,68.8,49.4,30.03,SW,225,0.4,3.8,50,0.00,,,0.00,WUHU216HW,2013-01-31 20:31:00,
2013-01-31 12:36:00,69.1,48.6,30.03,East,90,1.3,4.5,48,0.00,,,0.00,WUHU216HW,2013-01-31 20:36:00,
2013-01-31 12:41:00,69.1,49.1,30.02,West,270,1.6,4.5,49,0.00,,,0.00,WUHU216HW,2013-01-31 20:41:00,
2013-01-31 12:46:00,69.5,50.0,30.02,ESE,113,2.0,2.0,50,0.00,,,0.00,WUHU216HW,2013-01-31 20:46:00,
2013-01-31 12:51:00,69.1,48.0,30.02,ENE,68,4.3,4.9,47,0.00,,,0.00,WUHU216HW,2013-01-31 20:51:00,
2013-01-31 12:56:00,68.6,46.9,30.02,East,90,1.1,4.9,46,0.00,,,0.00,WUHU216HW,2013-01-31 20:56:00,
2013-01-31 13:01:00,68.2,45.4,30.02,SE,135,3.4,6.3,44,0.00,,,0.00,WUHU216HW,2013-01-31 21:01:00,
2013-01-31 13:06:00,68.0,46.5,30.02,ENE,68,2.7,6.3,46,0.00,,,0.00,WUHU216HW,2013-01-31 21:06:00,
2013-01-31 13:11:00,68.2,46.5,30.01,East,90,2.0,4.9,46,0.00,,,0.00,WUHU216HW,2013-01-31 21:11:00,
2013-01-31 13:16:00,68.6,48.1,30.01,South,180,0.2,3.8,48,0.00,,,0.00,WUHU216HW,2013-01-31 21:16:00,
2013-01-31 13:21:00,69.1,48.0,30.01,ESE,113,1.1,3.8,47,0.00,,,0.00,WUHU216HW,2013-01-31 21:21:00,
2013-01-31 13:26:00,69.5,48.3,30.01,East,90,1.3,2.9,47,0.00,,,0.00,WUHU216HW,2013-01-31 21:26:00,
2013-01-31 13:31:00,69.5,48.9,30.01,ESE,113,2.7,2.9,48,0.00,,,0.00,WUHU216HW,2013-01-31 21:31:00,
2013-01-31 13:36:00,69.7,48.4,30.01,ESE,113,4.0,4.0,47,0.00,,,0.00,WUHU216HW,2013-01-31 21:36:00,
2013-01-31 13:41:00,69.7,48.4,30.00,ESE,113,1.3,4.7,47,0.00,,,0.00,WUHU216HW,2013-01-31 21:41:00,
2013-01-31 13:46:00,70.0,49.4,30.00,NNE,23,0.4,4.7,48,0.00,,,0.00,WUHU216HW,2013-01-31 21:46:00,
2013-01-31 13:51:00,70.6,49.9,30.00,WNW,293,1.1,2.5,48,0.00,,,0.00,WUHU216HW,2013-01-31 21:51:00,
2013-01-31 13:56:00,70.9,50.2,30.00,ENE,68,0.9,2.0,48,0.00,,,0.00,WUHU216HW,2013-01-31 21:56:00,
2013-01-31 14:01:00,71.3,48.7,30.00,ESE,113,3.6,3.6,45,0.00,,,0.00,WUHU216HW,2013-01-31 22:01:00,
2013-01-31 14:06:00,70.9,48.4,29.99,East,90,1.1,4.0,45,0.00,,,0.00,WUHU216HW,2013-01-31 22:06:00,
2013-01-31 14:11:00,70.9,49.0,29.99,ENE,68,0.4,4.0,46,0.00,,,0.00,WUHU216HW,2013-01-31 22:11:00,
2013-01-31 14:16:00,71.1,48.0,29.99,ENE,68,3.8,3.8,44,0.00,,,0.00,WUHU216HW,2013-01-31 22:16:00,
2013-01-31 14:21:00,70.9,47.3,29.99,ENE,68,2.5,3.8,43,0.00,,,0.00,WUHU216HW,2013-01-31 22:21:00,
2013-01-31 14:26:00,71.1,49.1,29.99,WNW,293,1.1,2.7,46,0.00,,,0.00,WUHU216HW,2013-01-31 22:26:00,
2013-01-31 14:31:00,71.3,49.3,29.98,NNW,338,1.8,2.7,46,0.00,,,0.00,WUHU216HW,2013-01-31 22:31:00,
2013-01-31 14:36:00,71.8,50.4,29.99,ESE,113,1.1,2.0,47,0.00,,,0.00,WUHU216HW,2013-01-31 22:36:00,
2013-01-31 14:41:00,72.2,50.8,29.99,South,180,0.4,2.0,47,0.00,,,0.00,WUHU216HW,2013-01-31 22:41:00,
2013-01-31 14:46:00,72.7,50.6,29.99,ENE,68,0.0,2.5,46,0.00,,,0.00,WUHU216HW,2013-01-31 22:46:00,
2013-01-31 14:51:00,72.9,50.2,29.98,East,90,1.3,2.5,45,0.00,,,0.00,WUHU216HW,2013-01-31 22:51:00,
2013-01-31 14:56:00,72.9,50.2,29.98,ESE,113,1.8,2.2,45,0.00,,,0.00,WUHU216HW,2013-01-31 22:56:00,
2013-01-31 15:01:00,73.1,50.9,29.98,East,90,1.1,1.8,46,0.00,,,0.00,WUHU216HW,2013-01-31 23:01:00,
2013-01-31 15:06:00,73.1,50.9,29.98,ESE,113,1.1,1.8,46,0.00,,,0.00,WUHU216HW,2013-01-31 23:06:00,
2013-01-31 15:11:00,73.1,50.9,29.98,SW,225,1.1,1.8,46,0.00,,,0.00,WUHU216HW,2013-01-31 23:11:00,
2013-01-31 15:16:00,73.3,51.1,29.98,WNW,293,3.1,3.6,46,0.00,,,0.00,WUHU216HW,2013-01-31 23:16:00,
2013-01-31 15:21:00,73.1,51.6,29.98,West,270,5.6,6.3,47,0.00,,,0.00,WUHU216HW,2013-01-31 23:21:00,
2013-01-31 15:26:00,72.0,51.1,29.98,WNW,293,8.7,9.2,48,0.00,,,0.00,WUHU216HW,2013-01-31 23:26:00,
2013-01-31 15:31:00,70.7,50.6,29.98,NNW,338,6.9,9.2,49,0.00,,,0.00,WUHU216HW,2013-01-31 23:31:00,
2013-01-31 15:36:00,69.3,50.0,29.98,NW,315,6.3,8.5,50,0.00,,,0.00,WUHU216HW,2013-01-31 23:36:00,
2013-01-31 15:41:00,68.2,49.4,29.98,West,270,6.3,8.7,51,0.00,,,0.00,WUHU216HW,2013-01-31 23:41:00,
2013-01-31 15:46:00,67.9,49.6,29.98,WNW,293,7.6,8.7,52,0.00,,,0.00,WUHU216HW,2013-01-31 23:46:00,
2013-01-31 15:51:00,67.1,49.0,29.98,WNW,293,6.9,9.6,52,0.00,,,0.00,WUHU216HW,2013-01-31 23:51:00,
2013-01-31 15:56:00,66.6,49.0,29.98,West,270,8.1,9.6,53,0.00,,,0.00,WUHU216HW,2013-01-31 23:56:00,
2013-01-31 16:01:00,65.7,48.1,29.98,NW,315,10.1,10.1,53,0.00,,,0.00,WUHU216HW,2013-02-01 00:01:00,
2013-01-31 16:06:00,64.3,47.6,29.98,WNW,293,8.1,11.0,55,0.00,,,0.00,WUHU216HW,2013-02-01 00:06:00,
2013-01-31 16:11:00,63.7,48.6,29.98,NNW,338,8.1,11.0,58,0.00,,,0.00,WUHU216HW,2013-02-01 00:11:00,
2013-01-31 16:16:00,63.4,46.8,29.98,WNW,293,10.7,10.7,55,0.00,,,0.00,WUHU216HW,2013-02-01 00:16:00,
2013-01-31 16:21:00,62.6,46.6,29.98,WNW,293,8.3,11.6,56,0.00,,,0.00,WUHU216HW,2013-02-01 00:21:00,
2013-01-31 16:26:00,62.5,46.5,29.98,WNW,293,6.9,11.6,56,0.00,,,0.00,WUHU216HW,2013-02-01 00:26:00,
2013-01-31 16:31:00,62.3,46.8,29.98,WNW,293,6.9,10.3,57,0.00,,,0.00,WUHU216HW,2013-02-01 00:31:00,
2013-01-31 16:36:00,62.3,46.4,29.98,WNW,293,9.2,9.8,56,0.00,,,0.00,WUHU216HW,2013-02-01 00:36:00,
2013-01-31 16:41:00,62.1,46.2,29.98,WNW,293,8.7,9.8,56,0.00,,,0.00,WUHU216HW,2013-02-01 00:41:00,
2013-01-31 16:46:00,61.9,46.5,29.98,NW,315,6.0,8.7,57,0.00,,,0.00,WUHU216HW,2013-02-01 00:46:00,
2013-01-31 16:51:00,61.6,46.2,29.98,WNW,293,6.9,8.1,57,0.00,,,0.00,WUHU216HW,2013-02-01 00:51:00,
2013-01-31 16:56:00,61.6,46.2,29.98,WNW,293,7.8,7.8,57,0.00,,,0.00,WUHU216HW,2013-02-01 00:56:00,
2013-01-31 17:01:00,61.2,46.4,29.98,WNW,293,7.2,7.8,58,0.00,,,0.00,WUHU216HW,2013-02-01 01:01:00,
2013-01-31 17:06:00,60.8,46.5,29.98,WNW,293,5.4,7.8,59,0.00,,,0.00,WUHU216HW,2013-02-01 01:06:00,
2013-01-31 17:11:00,60.7,46.4,29.98,NW,315,4.7,6.9,59,0.00,,,0.00,WUHU216HW,2013-02-01 01:11:00,
2013-01-31 17:16:00,60.5,46.6,29.98,NW,315,4.3,6.3,60,0.00,,,0.00,WUHU216HW,2013-02-01 01:16:00,
2013-01-31 17:21:00,60.1,46.7,29.97,NW,315,5.1,5.4,61,0.00,,,0.00,WUHU216HW,2013-02-01 01:21:00,
2013-01-31 17:26:00,60.1,47.1,29.98,WNW,293,5.6,5.6,62,0.00,,,0.00,WUHU216HW,2013-02-01 01:26:00,
2013-01-31 17:31:00,60.1,48.3,29.98,NW,315,3.4,5.6,65,0.00,,,0.00,WUHU216HW,2013-02-01 01:31:00,
2013-01-31 17:36:00,59.9,47.7,29.98,NW,315,2.7,4.7,64,0.00,,,0.00,WUHU216HW,2013-02-01 01:36:00,
2013-01-31 17:41:00,60.3,48.5,29.98,NW,315,0.7,3.4,65,0.00,,,0.00,WUHU216HW,2013-02-01 01:41:00,
2013-01-31 17:46:00,62.1,50.2,29.98,NW,315,0.4,2.9,65,0.00,,,0.00,WUHU216HW,2013-02-01 01:46:00,
2013-01-31 17:51:00,63.4,51.4,29.98,NW,315,0.2,0.4,65,0.00,,,0.00,WUHU216HW,2013-02-01 01:51:00,
2013-01-31 17:56:00,64.4,51.5,29.98,NW,315,0.4,0.4,63,0.00,,,0.00,WUHU216HW,2013-02-01 01:56:00,
2013-01-31 18:01:00,64.3,50.0,29.98,WNW,293,0.7,0.7,60,0.00,,,0.00,WUHU216HW,2013-02-01 02:01:00,
2013-01-31 18:06:00,64.1,49.9,29.98,WNW,293,0.9,1.1,60,0.00,,,0.00,WUHU216HW,2013-02-01 02:06:00,
2013-01-31 18:11:00,63.7,49.6,29.98,WNW,293,0.4,1.1,60,0.00,,,0.00,WUHU216HW,2013-02-01 02:11:00,
2013-01-31 18:16:00,62.6,48.2,29.98,WNW,293,0.0,1.1,59,0.00,,,0.00,WUHU216HW,2013-02-01 02:16:00,
2013-01-31 18:21:00,61.4,47.0,29.98,WNW,293,0.0,0.4,59,0.00,,,0.00,WUHU216HW,2013-02-01 02:21:00,
2013-01-31 18:26:00,60.3,46.4,29.99,WSW,248,0.4,0.4,60,0.00,,,0.00,WUHU216HW,2013-02-01 02:26:00,
2013-01-31 18:31:00,59.4,46.0,29.99,West,270,0.2,0.7,61,0.00,,,0.00,WUHU216HW,2013-02-01 02:31:00,
2013-01-31 18:36:00,58.7,45.7,29.98,West,270,0.2,0.7,62,0.00,,,0.00,WUHU216HW,2013-02-01 02:36:00,
2013-01-31 18:41:00,58.0,45.5,29.99,West,270,0.0,0.4,63,0.00,,,0.00,WUHU216HW,2013-02-01 02:41:00,
2013-01-31 18:46:00,57.2,45.2,29.99,West,270,0.4,0.4,64,0.00,,,0.00,WUHU216HW,2013-02-01 02:46:00,
2013-01-31 18:51:00,56.9,45.2,29.99,WSW,248,0.4,0.4,65,0.00,,,0.00,WUHU216HW,2013-02-01 02:51:00,
2013-01-31 18:56:00,56.3,45.1,29.99,SSW,203,0.4,0.9,66,0.00,,,0.00,WUHU216HW,2013-02-01 02:56:00,
2013-01-31 19:01:00,55.8,45.0,29.99,SSW,203,0.4,0.9,67,0.00,,,0.00,WUHU216HW,2013-02-01 03:01:00,
2013-01-31 19:06:00,55.4,45.1,29.99,South,180,0.4,0.7,68,0.00,,,0.00,WUHU216HW,2013-02-01 03:06:00,
2013-01-31 19:11:00,54.9,44.9,29.99,East,90,0.4,1.1,69,0.00,,,0.00,WUHU216HW,2013-02-01 03:11:00,
2013-01-31 19:16:00,54.5,45.0,29.99,East,90,0.9,1.1,70,0.00,,,0.00,WUHU216HW,2013-02-01 03:16:00,
2013-01-31 19:21:00,54.4,45.2,29.99,East,90,0.4,1.3,71,0.00,,,0.00,WUHU216HW,2013-02-01 03:21:00,
2013-01-31 19:26:00,54.0,45.6,29.99,ENE,68,1.3,1.8,73,0.00,,,0.00,WUHU216HW,2013-02-01 03:26:00,
2013-01-31 19:31:00,53.6,45.2,29.99,ENE,68,1.3,2.5,73,0.00,,,0.00,WUHU216HW,2013-02-01 03:31:00,
2013-01-31 19:36:00,53.3,44.8,29.99,ENE,68,0.9,2.5,73,0.00,,,0.00,WUHU216HW,2013-02-01 03:36:00,
2013-01-31 19:41:00,53.1,44.6,29.98,ENE,68,1.8,1.8,73,0.00,,,0.00,WUHU216HW,2013-02-01 03:41:00,
2013-01-31 19:46:00,52.9,44.6,29.99,NNE,23,0.7,1.8,73,0.00,,,0.00,WUHU216HW,2013-02-01 03:46:00,
2013-01-31 19:51:00,52.9,44.6,29.99,NNE,23,0.7,1.8,73,0.00,,,0.00,WUHU216HW,2013-02-01 03:51:00,
2013-01-31 19:56:00,52.9,44.6,29.99,NNE,23,0.4,1.1,73,0.00,,,0.00,WUHU216HW,2013-02-01 03:56:00,
2013-01-31 20:01:00,52.7,44.4,29.99,NNE,23,0.0,0.9,73,0.00,,,0.00,WUHU216HW,2013-02-01 04:01:00,
2013-01-31 20:06:00,52.6,44.6,29.99,NNE,23,0.7,0.9,74,0.00,,,0.00,WUHU216HW,2013-02-01 04:06:00,
2013-01-31 20:11:00,52.6,44.6,29.99,NE,45,0.0,0.9,74,0.00,,,0.00,WUHU216HW,2013-02-01 04:11:00,
2013-01-31 20:16:00,52.4,44.4,29.99,NE,45,0.0,0.4,74,0.00,,,0.00,WUHU216HW,2013-02-01 04:16:00,
2013-01-31 20:21:00,52.4,44.4,29.99,NE,45,0.0,0.4,74,0.00,,,0.00,WUHU216HW,2013-02-01 04:21:00,
2013-01-31 20:26:00,52.2,44.2,29.99,NE,45,0.0,0.9,74,0.00,,,0.00,WUHU216HW,2013-02-01 04:26:00,
2013-01-31 20:31:00,52.2,44.2,29.99,NNE,23,0.0,0.9,74,0.00,,,0.00,WUHU216HW,2013-02-01 04:31:00,
2013-01-31 20:36:00,52.2,44.6,29.99,NNE,23,0.0,0.2,75,0.00,,,0.00,WUHU216HW,2013-02-01 04:36:00,
2013-01-31 20:41:00,52.2,44.6,29.99,NNE,23,0.0,0.2,75,0.00,,,0.00,WUHU216HW,2013-02-01 04:41:00,
2013-01-31 20:46:00,52.2,44.6,29.99,NNE,23,0.2,0.2,75,0.00,,,0.00,WUHU216HW,2013-02-01 04:46:00,
2013-01-31 20:51:00,52.0,44.4,29.99,NNE,23,0.4,0.7,75,0.00,,,0.00,WUHU216HW,2013-02-01 04:51:00,
2013-01-31 20:56:00,51.7,44.0,29.99,North,0,0.7,0.7,75,0.00,,,0.00,WUHU216HW,2013-02-01 04:56:00,
2013-01-31 21:00:00,51.7,44.0,29.99,NNW,338,1.1,1.1,75,0.00,,,0.00,WUHU216HW,2013-02-01 05:00:00,
2013-01-31 21:01:00,51.7,44.0,29.99,NNW,338,1.1,1.1,75,0.00,,,0.00,WUHU216HW,2013-02-01 05:01:00,
2013-01-31 21:03:00,51.7,44.0,29.99,NNW,338,0.7,1.1,75,0.00,,,0.00,WUHU216HW,2013-02-01 05:03:00,
2013-01-31 21:08:00,51.8,44.2,29.99,NNW,338,0.4,1.1,75,0.00,,,0.00,WUHU216HW,2013-02-01 05:08:00,
2013-01-31 21:13:00,52.0,44.4,29.99,NNW,338,0.0,0.9,75,0.00,,,0.00,WUHU216HW,2013-02-01 05:13:00,
2013-01-31 21:18:00,52.0,44.4,29.99,NNW,338,0.0,0.4,75,0.00,,,0.00,WUHU216HW,2013-02-01 05:18:00,
2013-01-31 21:23:00,52.0,44.4,29.99,SSE,158,0.2,0.4,75,0.00,,,0.00,WUHU216HW,2013-02-01 05:23:00,
2013-01-31 21:28:00,52.0,44.4,29.99,SE,135,0.0,0.4,75,0.00,,,0.00,WUHU216HW,2013-02-01 05:28:00,
2013-01-31 21:33:00,52.0,44.0,29.99,SE,135,0.0,0.4,74,0.00,,,0.00,WUHU216HW,2013-02-01 05:33:00,
2013-01-31 21:38:00,52.0,44.0,29.99,SSE,158,0.2,0.2,74,0.00,,,0.00,WUHU216HW,2013-02-01 05:38:00,
2013-01-31 21:43:00,51.7,43.7,29.99,SE,135,0.9,1.3,74,0.00,,,0.00,WUHU216HW,2013-02-01 05:43:00,
2013-01-31 21:48:00,51.3,43.3,29.99,SE,135,0.4,1.3,74,0.00,,,0.00,WUHU216HW,2013-02-01 05:48:00,
2013-01-31 21:53:00,51.1,43.1,29.99,SE,135,0.7,1.1,74,0.00,,,0.00,WUHU216HW,2013-02-01 05:53:00,
2013-01-31 21:58:00,51.1,43.1,29.99,SSE,158,1.1,1.1,74,0.00,,,0.00,WUHU216HW,2013-02-01 05:58:00,
2013-01-31 22:03:00,50.8,43.1,29.99,ESE,113,1.1,1.1,75,0.00,,,0.00,WUHU216HW,2013-02-01 06:03:00,
2013-01-31 22:08:00,50.8,43.1,29.98,ESE,113,0.9,1.1,75,0.00,,,0.00,WUHU216HW,2013-02-01 06:08:00,
2013-01-31 22:13:00,50.8,43.5,29.99,East,90,1.1,1.6,76,0.00,,,0.00,WUHU216HW,2013-02-01 06:13:00,
2013-01-31 22:18:00,50.8,43.8,29.99,East,90,1.8,1.8,77,0.00,,,0.00,WUHU216HW,2013-02-01 06:18:00,
2013-01-31 22:23:00,51.1,44.2,29.98,ESE,113,1.1,1.8,77,0.00,,,0.00,WUHU216HW,2013-02-01 06:23:00,
2013-01-31 22:28:00,50.9,43.7,29.98,ESE,113,0.4,1.3,76,0.00,,,0.00,WUHU216HW,2013-02-01 06:28:00,
2013-01-31 22:33:00,50.9,44.0,29.99,ESE,113,0.7,1.1,77,0.00,,,0.00,WUHU216HW,2013-02-01 06:33:00,
2013-01-31 22:38:00,50.8,43.5,29.99,SE,135,0.0,1.6,76,0.00,,,0.00,WUHU216HW,2013-02-01 06:38:00,
2013-01-31 22:43:00,50.8,43.5,29.99,SE,135,0.0,1.6,76,0.00,,,0.00,WUHU216HW,2013-02-01 06:43:00,
2013-01-31 22:48:00,50.6,43.3,29.98,SE,135,0.0,0.4,76,0.00,,,0.00,WUHU216HW,2013-02-01 06:48:00,
2013-01-31 22:53:00,50.4,43.5,29.99,SE,135,0.0,0.0,77,0.00,,,0.00,WUHU216HW,2013-02-01 06:53:00,
2013-01-31 22:58:00,50.2,43.3,29.99,SE,135,0.2,0.7,77,0.00,,,0.00,WUHU216HW,2013-02-01 06:58:00,
2013-01-31 23:03:00,50.2,43.6,29.99,East,90,1.8,1.8,78,0.00,,,0.00,WUHU216HW,2013-02-01 07:03:00,
2013-01-31 23:08:00,50.6,44.3,29.99,ENE,68,2.2,2.2,79,0.00,,,0.00,WUHU216HW,2013-02-01 07:08:00,
2013-01-31 23:13:00,50.8,44.1,29.99,East,90,1.1,2.2,78,0.00,,,0.00,WUHU216HW,2013-02-01 07:13:00,
2013-01-31 23:18:00,50.8,44.5,29.99,East,90,1.3,2.0,79,0.00,,,0.00,WUHU216HW,2013-02-01 07:18:00,
2013-01-31 23:23:00,50.4,44.5,29.99,East,90,2.2,2.2,80,0.00,,,0.00,WUHU216HW,2013-02-01 07:23:00,
2013-01-31 23:28:00,49.9,43.9,29.98,ESE,113,3.4,3.6,80,0.00,,,0.00,WUHU216HW,2013-02-01 07:28:00,
2013-01-31 23:33:00,49.7,43.7,29.98,East,90,2.0,3.6,80,0.00,,,0.00,WUHU216HW,2013-02-01 07:33:00,
2013-01-31 23:38:00,49.7,43.7,29.98,ENE,68,3.8,3.8,80,0.00,,,0.00,WUHU216HW,2013-02-01 07:38:00,
2013-01-31 23:43:00,49.7,44.0,29.98,East,90,3.6,3.8,81,0.00,,,0.00,WUHU216HW,2013-02-01 07:43:00,
2013-01-31 23:48:00,49.7,44.0,29.98,East,90,2.5,3.8,81,0.00,,,0.00,WUHU216HW,2013-02-01 07:48:00,
2013-01-31 23:53:00,49.7,44.0,29.98,ENE,68,2.9,3.8,81,0.00,,,0.00,WUHU216HW,2013-02-01 07:53:00,
2013-01-31 23:58:00,49.7,44.0,29.98,East,90,3.1,4.0,81,0.00,,,0.00,WUHU216HW,2013-02-01 07:58:00,